Time,TemperatureF,DewpointF,PressureIn,WindDirection,WindDirectionDegrees,WindSpeedMPH,WindSpeedGustMPH,Humidity,HourlyPrecipIn,Conditions,Clouds,dailyrainin,SoftwareType,DateUTC
2013-12-23 00:12:00,30.0,-99.9,-100.00,North,-999,-999.0,-999.0,-999,0.00,,,-99.99,,2013-12-23 05:12:00,
2013-12-23 00:23:00,30.0,-99.9,-100.00,North,-999,-999.0,-999.0,-999,0.00,,,-99.99,,2013-12-23 05:23:00,
2013-12-23 00:30:00,30.0,-99.9,-100.00,North,-999,-999.0,-999.0,-999,0.00,,,0.14,,2013-12-23 05:30:00,
2013-12-23 01:12:00,30.0,-99.9,-100.00,North,-999,-999.0,-999.0,-999,0.00,,,0.14,,2013-12-23 06:12:00,
2013-12-23 01:22:00,30.0,-99.9,-100.00,North,-999,-999.0,-999.0,-999,0.00,,,0.14,,2013-12-23 06:22:00,
2013-12-23 01:30:00,29.0,-99.9,-100.00,North,-999,-999.0,-999.0,-999,0.00,,,0.13,,2013-12-23 06:30:00,
2013-12-23 02:12:00,29.0,-99.9,-100.00,North,-999,-999.0,-999.0,-999,0.00,,,0.13,,2013-12-23 07:12:00,
2013-12-23 02:23:00,29.0,-99.9,-100.00,North,-999,-999.0,-999.0,-999,0.00,,,0.13,,2013-12-23 07:23:00,
2013-12-23 02:30:00,29.0,-99.9,-100.00,North,-999,-999.0,-999.0,-999,0.00,,,0.09,,2013-12-23 07:30:00,
2013-12-23 03:12:00,29.0,-99.9,-100.00,North,-999,-999.0,-999.0,-999,0.00,,,0.09,,2013-12-23 08:12:00,
2013-12-23 03:22:00,29.0,-99.9,-100.00,North,-999,-999.0,-999.0,-999,0.00,,,0.09,,2013-12-23 08:22:00,
2013-12-23 03:30:00,29.0,-99.9,-100.00,North,-999,-999.0,-999.0,-999,0.00,,,0.04,,2013-12-23 08:30:00,
2013-12-23 04:12:00,29.0,-99.9,-100.00,North,-999,-999.0,-999.0,-999,0.00,,,0.04,,2013-12-23 09:12:00,
2013-12-23 04:22:00,29.0,-99.9,-100.00,North,-999,-999.0,-999.0,-999,0.00,,,0.04,,2013-12-23 09:22:00,
2013-12-23 04:30:00,29.0,-99.9,-100.00,North,-999,-999.0,-999.0,-999,0.00,,,0.04,,2013-12-23 09:30:00,
2013-12-23 05:13:00,29.0,-99.9,-100.00,North,-999,-999.0,-999.0,-999,0.00,,,0.04,,2013-12-23 10:13:00,
2013-12-23 05:23:00,29.0,-99.9,-100.00,North,-999,-999.0,-999.0,-999,0.00,,,0.04,,2013-12-23 10:23:00,
2013-12-23 05:30:00,30.0,-99.9,-100.00,North,-999,-999.0,-999.0,-999,0.00,,,0.04,,2013-12-23 10:30:00,
2013-12-23 06:12:00,30.0,-99.9,-100.00,North,-999,-999.0,-999.0,-999,0.00,,,0.04,,2013-12-23 11:12:00,
2013-12-23 06:22:00,30.0,-99.9,-100.00,North,-999,-999.0,-999.0,-999,0.00,,,0.04,,2013-12-23 11:22:00,
2013-12-23 06:30:00,29.0,-99.9,-100.00,North,-999,-999.0,-999.0,-999,0.00,,,0.03,,2013-12-23 11:30:00,
2013-12-23 07:12:00,29.0,-99.9,-100.00,North,-999,-999.0,-999.0,-999,0.00,,,0.03,,2013-12-23 12:12:00,
2013-12-23 07:22:00,29.0,-99.9,-100.00,North,-999,-999.0,-999.0,-999,0.00,,,0.03,,2013-12-23 12:22:00,
2013-12-23 07:30:00,30.0,-99.9,-100.00,North,-999,-999.0,-999.0,-999,0.01,,,0.02,,2013-12-23 12:30:00,
2013-12-23 08:12:00,30.0,-99.9,-100.00,North,-999,-999.0,-999.0,-999,0.01,,,0.02,,2013-12-23 13:12:00,
2013-12-23 08:22:00,30.0,-99.9,-100.00,North,-999,-999.0,-999.0,-999,0.01,,,0.02,,2013-12-23 13:22:00,
2013-12-23 08:30:00,30.0,-99.9,-100.00,North,-999,-999.0,-999.0,-999,0.04,,,0.05,,2013-12-23 13:30:00,
2013-12-23 09:11:00,30.0,-99.9,-100.00,North,-999,-999.0,-999.0,-999,0.04,,,0.05,,2013-12-23 14:11:00,
2013-12-23 09:22:00,30.0,-99.9,-100.00,North,-999,-999.0,-999.0,-999,0.04,,,0.05,,2013-12-23 14:22:00,
2013-12-23 09:30:00,31.0,-99.9,-100.00,North,-999,-999.0,-999.0,-999,0.05,,,0.10,,2013-12-23 14:30:00,
2013-12-23 10:12:00,31.0,-99.9,-100.00,North,-999,-999.0,-999.0,-999,0.05,,,0.10,,2013-12-23 15:12:00,
2013-12-23 10:22:00,31.0,-99.9,-100.00,North,-999,-999.0,-999.0,-999,0.05,,,0.10,,2013-12-23 15:22:00,
2013-12-23 10:30:00,31.0,-99.9,-100.00,North,-999,-999.0,-999.0,-999,0.04,,,0.14,,2013-12-23 15:30:00,
2013-12-23 11:14:00,31.0,-99.9,-100.00,North,-999,-999.0,-999.0,-999,0.04,,,0.14,,2013-12-23 16:14:00,
2013-12-23 11:24:00,31.0,-99.9,-100.00,North,-999,-999.0,-999.0,-999,0.04,,,0.14,,2013-12-23 16:24:00,
2013-12-23 11:30:00,31.0,-99.9,-100.00,North,-999,-999.0,-999.0,-999,0.01,,,0.15,,2013-12-23 16:30:00,
2013-12-23 12:13:00,31.0,-99.9,-100.00,North,-999,-999.0,-999.0,-999,0.01,,,0.15,,2013-12-23 17:13:00,
2013-12-23 12:25:00,31.0,-99.9,-100.00,North,-999,-999.0,-999.0,-999,0.01,,,0.15,,2013-12-23 17:25:00,
2013-12-23 12:30:00,32.0,-99.9,-100.00,North,-999,-999.0,-999.0,-999,0.02,,,0.17,,2013-12-23 17:30:00,
2013-12-23 13:12:00,32.0,-99.9,-100.00,North,-999,-999.0,-999.0,-999,0.02,,,0.17,,2013-12-23 18:12:00,
2013-12-23 13:24:00,32.0,-99.9,-100.00,North,-999,-999.0,-999.0,-999,0.02,,,0.17,,2013-12-23 18:24:00,
2013-12-23 13:30:00,32.0,-99.9,-100.00,North,-999,-999.0,-999.0,-999,0.00,,,0.17,,2013-12-23 18:30:00,
2013-12-23 14:12:00,32.0,-99.9,-100.00,North,-999,-999.0,-999.0,-999,0.00,,,0.17,,2013-12-23 19:12:00,
2013-12-23 14:22:00,32.0,-99.9,-100.00,North,-999,-999.0,-999.0,-999,0.00,,,0.17,,2013-12-23 19:22:00,
2013-12-23 14:30:00,32.0,-99.9,-100.00,North,-999,-999.0,-999.0,-999,0.02,,,0.19,,2013-12-23 19:30:00,
2013-12-23 15:12:00,32.0,-99.9,-100.00,North,-999,-999.0,-999.0,-999,0.02,,,0.19,,2013-12-23 20:12:00,
2013-12-23 15:22:00,32.0,-99.9,-100.00,North,-999,-999.0,-999.0,-999,0.02,,,0.19,,2013-12-23 20:22:00,
2013-12-23 15:30:00,32.0,-99.9,-100.00,North,-999,-999.0,-999.0,-999,0.01,,,0.20,,2013-12-23 20:30:00,
2013-12-23 16:12:00,32.0,-99.9,-100.00,North,-999,-999.0,-999.0,-999,0.01,,,0.20,,2013-12-23 21:12:00,
2013-12-23 16:22:00,32.0,-99.9,-100.00,North,-999,-999.0,-999.0,-999,0.01,,,0.20,,2013-12-23 21:22:00,
2013-12-23 16:30:00,32.0,-99.9,-100.00,North,-999,-999.0,-999.0,-999,0.03,,,0.23,,2013-12-23 21:30:00,
2013-12-23 17:13:00,32.0,-99.9,-100.00,North,-999,-999.0,-999.0,-999,0.03,,,0.23,,2013-12-23 22:13:00,
2013-12-23 17:23:00,32.0,-99.9,-100.00,North,-999,-999.0,-999.0,-999,0.03,,,0.23,,2013-12-23 22:23:00,
2013-12-23 17:30:00,32.0,-99.9,-100.00,North,-999,-999.0,-999.0,-999,0.00,,,0.23,,2013-12-23 22:30:00,
2013-12-23 18:12:00,32.0,-99.9,-100.00,North,-999,-999.0,-999.0,-999,0.00,,,0.23,,2013-12-23 23:12:00,
2013-12-23 18:22:00,32.0,-99.9,-100.00,North,-999,-999.0,-999.0,-999,0.00,,,0.23,,2013-12-23 23:22:00,
2013-12-23 18:30:00,33.0,-99.9,-100.00,North,-999,-999.0,-999.0,-999,0.00,,,0.23,,2013-12-23 23:30:00,
2013-12-23 19:12:00,33.0,-99.9,-100.00,North,-999,-999.0,-999.0,-999,0.00,,,0.23,,2013-12-24 00:12:00,
2013-12-23 19:22:00,33.0,-99.9,-100.00,North,-999,-999.0,-999.0,-999,0.00,,,0.23,,2013-12-24 00:22:00,
2013-12-23 19:30:00,33.0,-99.9,-100.00,North,-999,-999.0,-999.0,-999,0.01,,,0.24,,2013-12-24 00:30:00,
2013-12-23 20:11:00,33.0,-99.9,-100.00,North,-999,-999.0,-999.0,-999,0.01,,,0.24,,2013-12-24 01:11:00,
2013-12-23 20:22:00,33.0,-99.9,-100.00,North,-999,-999.0,-999.0,-999,0.01,,,0.24,,2013-12-24 01:22:00,
2013-12-23 20:30:00,34.0,-99.9,-100.00,North,-999,-999.0,-999.0,-999,0.00,,,0.24,,2013-12-24 01:30:00,
2013-12-23 21:12:00,34.0,-99.9,-100.00,North,-999,-999.0,-999.0,-999,0.00,,,0.24,,2013-12-24 02:12:00,
2013-12-23 21:22:00,34.0,-99.9,-100.00,North,-999,-999.0,-999.0,-999,0.00,,,0.24,,2013-12-24 02:22:00,
2013-12-23 21:30:00,34.0,-99.9,-100.00,North,-999,-999.0,-999.0,-999,0.00,,,0.24,,2013-12-24 02:30:00,
2013-12-23 22:11:00,34.0,-99.9,-100.00,North,-999,-999.0,-999.0,-999,0.00,,,0.24,,2013-12-24 03:11:00,
2013-12-23 22:22:00,34.0,-99.9,-100.00,North,-999,-999.0,-999.0,-999,0.00,,,0.24,,2013-12-24 03:22:00,
2013-12-23 22:30:00,34.0,-99.9,-100.00,North,-999,-999.0,-999.0,-999,0.00,,,0.24,,2013-12-24 03:30:00,
2013-12-23 23:13:00,34.0,-99.9,-100.00,North,-999,-999.0,-999.0,-999,0.00,,,0.24,,2013-12-24 04:13:00,
2013-12-23 23:23:00,34.0,-99.9,-100.00,North,-999,-999.0,-999.0,-999,0.00,,,0.24,,2013-12-24 04:23:00,
2013-12-23 23:30:00,34.0,-99.9,-100.00,North,-999,-999.0,-999.0,-999,0.00,,,0.24,,2013-12-24 04:30:00,